Location: UFOWorks Observatory
(42.1050°N, 72.2350°W)
Time: 09:00:54
(UTC-04:00)

ISS - Visible Passes

Search period start: 26 May 2017 00:00
Search period end: 05 June 2017 00:00
Orbit: 402 x 408 km, 51.6° (Epoch: 26 May)

Date Brightness Start Highest point End Pass type
(mag) Time Alt. Az. Time Alt. Az. Time Alt. Az.
26 May -0.6 00:27:40 10° NW 00:29:45 15° N 00:31:50 10° NE visible
26 May -1.6 02:04:12 10° NW 02:07:04 26° NNE 02:09:54 10° E visible
26 May -3.8 03:40:30 10° WNW 03:43:44 54° SW 03:46:55 10° SE visible
26 May -2.0 21:57:09 10° W 22:00:12 34° NNW 22:03:15 10° NE visible
26 May -0.7 23:35:16 10° NW 23:37:25 16° N 23:39:34 10° NE visible
27 May -1.1 01:12:15 10° NW 01:14:48 20° NNE 01:17:22 10° ENE visible
27 May -3.6 02:48:24 10° NW 02:53:57 19° ESE 02:54:58 10° ESE visible
27 May -1.9 04:27:43 12° SW 04:27:45 12° SW 04:29:05 10° SSW visible
27 May -2.9 21:04:48 10° WSW 21:08:02 54° NNW 21:11:18 10° NE visible
27 May -0.8 22:42:43 10° WNW 22:45:05 18° N 22:47:27 10° NE visible
28 May -0.8 00:20:13 10° NW 00:22:29 17° N 00:24:46 10° NE visible
28 May -1.5 01:56:24 10° NW 01:57:35 20° NW 01:57:35 20° NW visible
28 May -1.1 21:50:06 10° WNW 21:52:46 22° NNW 21:55:26 10° NE visible
28 May -0.7 23:28:02 10° NW 23:30:08 16° N 23:32:15 10° NE visible
29 May -1.5 01:04:26 10° NW 01:06:21 24° NNW 01:06:21 24° NNW visible
29 May -1.6 20:57:32 10° W 21:00:30 29° NNW 21:03:27 10° NE visible
29 May -0.7 22:35:39 10° NW 22:37:46 16° N 22:39:52 10° NE visible
30 May -1.4 00:12:27 10° NW 00:15:07 22° NNE 00:15:31 22° NNE visible
30 May -0.8 21:43:06 10° NW 21:45:23 17° N 21:47:39 10° NE visible
30 May -1.0 23:20:24 10° NW 23:22:48 18° NNE 23:24:49 12° NE visible
31 May -1.2 00:56:33 10° NW 00:57:26 17° NW 00:57:26 17° NW visible
31 May -1.0 20:50:28 10° WNW 20:53:01 20° NNW 20:55:34 10° NE visible
31 May -0.9 22:28:15 10° NW 22:30:24 16° N 22:32:34 10° NE visible
01 Jun -1.9 00:04:33 10° NW 00:06:50 30° N 00:06:50 30° N visible
01 Jun -0.9 21:35:54 10° NW 21:37:59 16° N 21:40:04 10° NE visible
01 Jun -1.8 23:12:32 10° NW 23:15:19 25° NNE 23:16:16 21° NE visible
02 Jun -0.8 00:48:46 10° WNW 00:48:54 11° WNW 00:48:54 11° WNW visible
02 Jun -1.3 22:20:29 10° NW 22:22:58 19° NNE 22:25:26 10° ENE visible
02 Jun -1.9 23:56:37 10° NW 23:58:23 28° NW 23:58:23 28° NW visible
03 Jun -1.1 21:28:19 10° NW 21:30:33 17° N 21:32:47 10° NE visible
03 Jun -2.8 23:04:33 10° NW 23:07:41 40° NNE 23:07:53 40° NE visible
04 Jun -2.0 22:12:29 10° NW 22:15:23 27° NNE 22:17:26 15° ENE visible
04 Jun -1.6 23:48:49 10° WNW 23:50:04 21° WNW 23:50:04 21° WNW visible
